Helicity
264 384 464 351 427 437 318 269 243 245 244 230 228 124 160 127 211 179 146 146 151 169 176 153 247 256 250 277 372 451 425 328 312 345 316 351 338 302 303 250 215 246 237 225
234 326 318 220 242 174 184 201 198 133 93 60 167 113 143 126 97 175 239 207 206 172 188 175 253 299 252 254 285 339 408 378 374 326 380 357 359 335 307 304 254 222 270 243
198 190 144 162 149 128 104 137 138 140 183 108 81 104 121 100 103 98 111 117 143 192 193 176 205 312 250 231 250 281 259 303 338 336 398 361 423 443 410 349 307 267 231 258
215 254 94 127 54 38 191 7 105 146 187 175 138 182 133 126 80 48 70 111 124 166 174 190 220 308 259 230 254 261 331 397 405 405 396 376 417 446 415 340 307 296 253 257
-2 149 169 69 43 131 130 30 -26 22 135 143 148 142 137 121 46 64 92 109 140 156 181 185 203 327 273 256 282 298 332 441 482 544 489 471 472 389 406 406 362 330 326 268
-35 -16 41 60 45 24 57 30 49 65 80 140 193 227 90 117 43 48 101 73 105 145 149 163 176 288 353 335 297 301 411 445 535 562 477 426 527 566 457 409 418 377 361 314
180 11 15 20 0 -4 14 61 108 106 41 33 59 227 210 69 78 21 19 100 85 114 156 170 125 262 386 380 304 338 403 418 511 522 557 524 447 337 398 378 399 374 359 338
2 43 39 271 118 65 1 32 126 149 292 109 71 109 172 47 40 162 185 144 177 168 149 157 137 176 337 395 358 336 381 436 480 556 533 401 410 383 315 339 380 364 356 350
-20 -76 100 77 63 142 28 58 60 164 123 157 135 217 99 61 34 92 97 48 57 217 129 138 129 162 315 387 380 381 401 458 493 494 483 478 463 427 384 372 414 383 364 384
-6 -65 12 -66 160 150 -119 112 112 152 132 155 146 128 176 82 104 46 34 83 94 83 94 124 142 138 286 419 466 404 410 445 533 530 530 561 545 472 250 284 332 371 360 358
-49 -119 61 63 251 197 -2 22 123 106 95 64 249 176 106 232 245 274 213 199 212 236 111 99 129 153 280 414 463 430 363 389 420 474 471 540 499 548 337 279 297 342 389 378
-88 -73 13 151 64 152 323 297 534 141 131 48 127 207 107 318 355 292 241 164 132 174 185 214 112 148 242 380 381 382 319 312 388 431 411 483 444 451 342 337 265 274 359 387
-98 -50 -3 58 51 130 489 569 675 521 251 181 263 123 185 241 313 362 372 333 115 92 108 138 167 112 185 329 364 334 285 282 344 386 407 509 495 450 434 279 312 298 335 345
-99 -13 56 130 268 372 486 545 534 424 373 184 98 98 105 112 133 192 296 276 231 87 62 46 74 116 131 293 328 283 260 265 332 372 401 458 428 411 311 326 325 329 321 351
-50 66 150 130 108 229 349 440 259 265 239 190 262 155 201 196 138 57 18 69 148 102 53 64 77 62 144 313 303 295 267 275 300 348 384 403 376 435 404 325 340 345 354 377
-26 70 161 182 112 146 289 335 289 196 160 132 204 182 296 181 100 39 39 66 62 37 33 70 108 115 114 278 331 309 272 268 298 355 401 442 445 462 402 403 379 400 404 426
-11 32 104 64 64 200 239 300 312 136 359 274 251 201 190 169 153 100 139 40 35 -2 26 60 81 78 149 220 320 265 278 330 300 365 404 430 547 479 464 440 416 452 465 499
22 62 109 105 197 236 65 42 262 152 259 403 230 215 173 174 141 148 98 157 122 -5 19 51 60 65 236 251 310 323 367 334 307 349 402 530 552 562 566 536 392 447 512 511
-2 67 159 125 163 143 46 119 214 241 191 240 280 283 246 242 184 35 207 342 259 28 80 80 75 67 161 237 368 400 429 391 367 378 503 584 764 771 510 560 566 533 639 614
40 49 93 163 127 99 48 131 119 137 95 240 293 274 236 196 191 115 271 304 126 113 123 82 92 107 173 256 242 301 337 337 371 466 583 709 774 752 630 640 677 678 655 742
93 70 108 187 125 9 11 68 111 118 170 250 299 259 165 122 130 201 220 60 56 59 72 60 94 122 154 233 331 413 463 472 503 630 771 869 948 834 696 768 849 811 833 806
73 178 128 75 64 55 -13 -16 31 129 104 132 201 170 178 197 172 103 67 40 41 55 72 82 101 150 154 226 360 476 567 569 683 775 852 901 978 958 1021 809 868 782 907 742
-1 -38 77 57 50 -26 -157 -54 -24 -31 46 94 97 91 156 130 73 60 64 50 53 65 85 112 120 159 193 195 254 429 484 570 698 776 819 870 906 873 815 816 759 840 759 632
-30 -38 -54 34 -32 -41 27 -3 -69 -28 53 48 7 15 100 91 57 53 75 79 78 87 86 104 154 184 217 213 232 294 354 502 669 783 855 893 981 923 747 907 764 741 438 409
2 -16 -26 -9 -10 59 -9 -16 -15 29 37 8 -13 -18 26 49 60 63 88 105 90 78 95 109 145 178 217 243 288 314 344 436 499 588 668 731 771 804 748 711 611 431 360 267
-19 -58 -86 36 114 130 190 119 65 40 55 -4 -14 -26 12 47 42 62 81 84 80 82 95 125 178 223 262 307 337 334 345 454 553 602 622 635 662 645 664 607 482 312 228 210
Wind_Speed
79 94 112 118 119 111 105 108 100 99 87 82 91 113 89 84 85 77 71 71 73 70 61 57 54 46 48 52 54 55 58 53 48 45 45 42 38 32 28 26 24 22 20 17
93 107 100 99 104 100 106 109 103 92 77 83 89 106 82 77 87 82 74 76 72 67 61 60 57 53 52 54 55 58 57 57 50 45 45 41 38 34 32 28 25 23 22 20
102 109 90 95 98 110 109 106 104 97 74 67 84 106 91 84 82 80 81 79 79 68 62 60 59 58 53 56 57 58 57 54 55 49 42 40 38 35 35 35 31 28 24 23
77 73 100 112 111 95 110 108 93 106 94 102 66 99 92 88 91 91 88 87 80 74 72 61 58 58 57 56 53 55 57 55 54 50 49 49 50 47 43 39 35 31 27 24
80 89 89 99 108 114 119 120 111 105 88 95 89 88 82 75 84 92 92 89 79 75 72 71 60 57 53 53 52 55 57 57 55 52 53 50 48 49 45 42 41 35 32 28
81 84 86 91 106 105 104 113 123 117 95 107 95 90 118 77 79 83 83 84 77 72 73 68 65 57 57 51 51 54 57 59 58 57 54 52 50 53 50 50 46 43 38 33
79 64 69 63 76 68 96 104 95 111 114 112 91 92 99 68 78 81 75 65 61 65 66 66 70 60 58 54 52 52 57 60 60 57 54 53 48 51 48 56 53 48 44 40
58 58 50 58 52 55 86 99 86 82 75 96 76 75 76 84 67 51 59 52 52 52 52 59 64 63 58 52 51 50 56 59 60 60 58 56 52 48 46 60 54 53 50 45
56 55 71 57 68 61 49 93 92 76 73 72 61 60 60 57 68 68 61 56 57 56 55 54 55 62 56 54 51 50 53 57 60 59 58 56 57 52 57 56 52 52 51 47
51 62 49 55 51 47 63 45 74 78 61 81 73 66 53 42 39 47 57 57 57 56 61 51 52 55 54 53 51 49 51 57 56 56 55 55 57 51 52 47 53 53 50 48
49 45 50 51 38 51 57 49 56 62 69 32 46 49 34 18 19 22 25 34 42 41 53 58 53 48 49 49 50 50 49 53 56 56 54 53 54 56 51 52 51 50 50 50
46 48 50 44 29 19 23 25 25 73 63 55 28 26 4 6 8 15 22 26 28 33 40 45 48 45 43 48 48 49 48 53 53 53 53 53 59 62 58 50 46 44 50 51
44 41 43 34 28 31 28 37 33 38 43 61 56 29 6 3 11 21 29 33 32 34 40 46 54 47 41 46 49 47 47 52 53 52 51 51 57 56 61 50 50 48 46 44
43 42 43 50 51 50 49 49 35 30 44 36 41 30 21 15 21 28 34 35 43 46 43 42 50 58 42 43 47 49 46 48 50 51 50 53 57 56 59 51 48 48 44 42
47 52 50 54 61 52 46 45 44 46 42 42 35 31 30 34 38 37 41 45 50 51 43 46 48 58 57 42 46 45 44 46 50 52 52 52 52 55 53 50 51 47 42 41
56 55 55 50 41 37 36 36 34 35 41 35 33 30 38 41 41 38 47 54 55 50 44 46 48 47 57 42 41 41 42 44 48 51 52 52 48 53 52 52 49 47 43 38
53 48 45 43 39 38 27 20 20 10 14 18 26 35 37 38 46 50 49 58 54 45 42 42 42 39 46 34 35 35 36 38 46 48 48 53 48 50 55 52 51 52 46 40
42 49 45 44 36 30 18 26 21 14 17 20 29 38 44 52 56 50 39 44 49 46 38 35 36 34 30 24 27 31 31 35 43 45 48 49 53 49 50 52 51 50 47 43
28 38 44 43 40 41 26 27 32 28 25 32 36 43 49 54 51 41 41 45 43 28 26 29 33 30 25 18 25 27 27 34 39 42 44 50 51 51 51 51 50 47 45 38
38 43 50 39 45 35 28 39 44 41 30 44 46 45 48 48 42 49 51 50 36 30 32 33 33 31 25 24 19 26 31 37 37 38 42 44 48 54 52 49 45 43 41 36
30 33 49 51 45 36 37 42 34 29 41 55 52 52 49 45 50 57 53 38 33 34 36 33 30 29 29 26 22 31 33 34 31 30 33 37 39 48 47 45 42 46 40 32
28 34 40 43 44 41 44 31 22 40 49 52 52 51 49 49 49 45 42 38 37 37 35 32 29 29 28 22 16 26 28 28 26 25 27 30 31 34 45 46 44 45 40 40
28 28 40 36 37 37 34 29 36 43 46 48 51 49 49 43 39 37 35 33 32 33 32 31 29 25 26 19 12 19 23 20 22 22 21 24 21 29 35 45 44 39 36 31
38 37 38 43 44 47 46 39 44 49 48 48 47 45 44 40 36 33 31 28 29 29 28 26 25 23 24 18 11 9 13 16 18 20 21 19 22 26 29 32 31 34 36 27
39 39 43 47 42 51 37 51 54 51 45 44 43 40 38 33 31 28 26 26 25 24 23 23 23 20 19 12 7 6 13 17 17 19 18 16 17 24 31 29 31 30 25 20
37 41 42 48 53 54 58 56 52 46 45 44 40 35 31 28 24 21 19 19 18 18 19 20 22 25 20 12 1 5 9 15 20 20 18 20 27 32 35 38 32 21 15 19
Wind_Direction
280 270 260 257 255 260 264 264 267 266 260 256 255 261 261 261 265 257 255 253 252 252 251 250 242 235 232 228 229 223 232 223 224 227 229 228 230 228 225 225 221 210 208 203
278 267 265 262 262 262 259 260 262 266 263 253 256 259 260 259 257 259 259 258 255 252 245 245 243 234 230 228 227 227 226 227 228 223 230 228 229 230 230 225 220 221 210 206
279 274 273 266 262 257 258 257 254 258 266 258 258 259 256 256 258 258 257 256 256 254 247 243 241 234 231 230 227 227 225 225 225 227 226 228 227 227 233 225 225 223 216 214
293 294 274 265 260 257 256 254 260 253 252 256 258 262 255 255 257 257 256 255 254 252 251 244 238 233 232 233 229 225 223 222 223 220 222 223 226 226 230 226 228 223 222 220
289 288 289 269 260 255 256 251 251 252 249 254 255 260 259 256 255 255 255 252 252 250 249 248 239 231 230 229 229 224 224 220 218 219 226 219 224 233 226 224 223 222 225 224
286 278 279 271 256 253 252 248 248 251 255 255 245 250 255 257 257 256 255 252 248 246 247 246 248 235 231 229 227 225 220 217 218 220 219 223 229 225 224 222 222 224 224 225
287 277 283 273 265 254 244 240 245 244 245 249 257 249 251 258 258 258 260 256 246 245 245 244 242 238 229 224 224 225 218 218 216 215 216 218 223 226 217 220 221 221 223 225
307 273 283 281 265 267 244 234 235 235 238 247 252 254 255 251 259 258 265 265 262 246 244 244 240 238 227 221 222 223 220 216 214 218 218 219 224 223 218 222 222 225 224 224
289 268 278 278 274 257 259 232 235 248 248 250 247 259 266 256 252 256 258 261 261 261 256 246 240 237 228 220 220 220 217 216 216 219 220 222 226 226 224 225 220 223 225 222
280 269 268 292 285 256 237 249 229 233 243 245 249 252 255 244 240 256 259 265 263 263 258 253 241 235 229 221 221 219 217 215 213 216 218 220 220 221 223 218 222 218 220 220
285 254 247 287 280 263 237 252 241 231 233 262 244 243 230 243 243 247 275 284 283 282 258 254 251 237 229 221 219 218 216 216 214 216 219 219 217 216 219 222 222 218 215 216
281 245 255 254 244 310 269 269 251 228 231 237 253 246 159 216 276 285 299 307 307 290 280 266 254 237 225 217 217 216 216 214 212 213 215 217 222 223 220 219 214 211 215 215
285 266 260 250 246 272 274 259 265 246 232 231 233 249 279 270 294 305 302 295 303 303 293 276 260 247 229 218 216 216 216 217 215 211 209 216 217 215 220 211 212 208 209 208
283 256 257 244 255 264 259 260 256 241 229 237 235 238 250 279 289 295 300 298 287 298 299 290 269 254 239 217 217 220 219 214 211 207 203 207 211 216 213 209 201 206 207 203
275 255 260 262 268 261 256 258 267 246 242 238 252 253 276 276 284 286 281 281 283 286 289 282 274 259 253 216 219 218 219 215 209 208 206 202 207 212 212 203 207 206 201 206
273 252 260 260 267 264 256 252 261 260 249 255 257 263 298 278 279 279 264 269 272 280 287 278 272 275 249 219 216 217 218 213 209 209 208 199 200 206 206 202 204 199 194 196
261 249 250 240 267 265 239 297 301 320 330 270 257 273 287 283 280 271 272 269 267 276 283 276 279 281 264 216 200 208 214 207 214 215 213 203 200 206 210 206 200 205 198 194
255 242 242 240 256 236 259 328 301 294 320 306 285 282 283 281 276 260 284 283 273 273 282 284 292 285 283 241 213 203 205 213 217 218 212 208 208 204 203 206 204 203 201 195
273 244 233 228 233 230 257 287 281 281 276 327 301 289 289 291 272 254 291 284 281 284 302 300 299 296 286 267 234 217 212 215 219 215 211 209 208 207 205 202 201 205 197 194
259 246 226 228 221 227 275 280 273 253 249 312 307 294 292 293 257 252 279 274 287 292 296 297 298 291 289 278 247 231 231 224 216 213 217 212 211 203 206 200 193 199 195 185
253 231 220 222 226 243 295 296 282 247 253 296 299 297 291 275 264 263 268 286 292 298 298 298 306 296 288 284 262 243 234 230 222 211 208 215 216 203 198 195 194 189 184 179
249 239 227 232 231 235 306 288 280 276 286 287 289 290 283 276 268 270 274 284 287 291 291 292 301 294 302 293 264 245 235 229 214 204 202 202 203 203 197 196 192 187 178 184
255 264 243 247 246 274 286 296 300 298 288 287 288 287 287 283 284 282 288 292 294 298 296 292 295 310 309 312 278 241 233 214 199 196 194 200 188 191 186 185 183 186 183 176
283 294 258 259 252 276 274 287 298 300 291 291 291 289 293 282 283 282 284 284 297 302 297 300 318 315 321 307 284 221 203 192 176 177 187 172 167 157 168 184 179 177 181 186
276 270 265 252 257 282 254 284 291 289 282 288 294 293 294 283 283 280 283 295 299 298 307 324 336 342 336 327 282 213 188 165 164 180 183 166 177 167 168 169 168 171 192 179
290 265 256 249 265 260 261 273 277 279 281 293 290 290 295 287 279 286 300 291 289 298 326 343 359 21 15 18 30 184 150 137 141 145 141 135 137 139 149 156 153 153 146 110